Overview Statistics Trail Chart Weather Telemetry Raw packets
 

This is the latest recevied weather packets stored in our database for station/object KO4LCK. If no packets are shown the sender has not sent any weather packets the latest 10 day(s).

<< 30 31 32 33 34 35 36 >>
Time Temp. Humidity Pressure Rain* Wind** Luminosity Snow
1788440250 26.67° C 82% 1019.4 hPa 0 mm - 165 W/m² -
1788439946 26.11° C 85% 1019.5 hPa 0 mm - 152 W/m² -
1788439645 25° C 89% 1019.5 hPa 0 mm - 135 W/m² -
1788439340 24.44° C 91% 1019.5 hPa 0 mm - 104 W/m² -
1788439038 23.89° C 93% 1019.4 hPa 0 mm - 65 W/m² -
1788438738 23.89° C 94% 1019.6 hPa 0 mm - 52 W/m² -
1788438437 23.33° C 94% 1019.6 hPa 0 mm - 48 W/m² -
1788438132 23.33° C 94% 1019.5 hPa 0 mm - 45 W/m² -
1788437830 23.33° C 95% 1019.5 hPa 0 mm - 42 W/m² -
1788437527 22.78° C 95% 1019.4 hPa 0 mm - 39 W/m² -
1788437226 22.78° C 95% 1019.4 hPa 0 mm - 36 W/m² -
1788436921 22.78° C 95% 1019.4 hPa 0 mm - 32 W/m² -
1788436620 22.78° C 95% 1019.4 hPa 0 mm - 29 W/m² -
1788436315 22.22° C 95% 1019.3 hPa 0 mm - 25 W/m² -
1788436015 22.22° C 95% 1019.2 hPa 0 mm - 22 W/m² -
1788435710 22.22° C 95% 1019.3 hPa 0 mm - 18 W/m² -
1788435406 22.22° C 95% 1019.2 hPa 0 mm - 14 W/m² -
1788435102 22.22° C 95% 1019 hPa 0 mm - 11 W/m² -
1788434798 22.22° C 95% 1018.8 hPa 0 mm - 8 W/m² -
1788434497 22.22° C 95% 1018.8 hPa 0 mm - 5 W/m² -
1788434196 22.22° C 95% 1018.8 hPa 0 mm - 3 W/m² -
1788433892 22.22° C 95% 1018.9 hPa 0 mm - 2 W/m² -
1788433588 22.22° C 95% 1018.8 hPa 0 mm - 1 W/m² -
1788433284 22.22° C 95% 1018.6 hPa 0 mm - 0 W/m² -
1788432978 22.22° C 95% 1018.5 hPa 0 mm - 0 W/m² -

* Rain latest hour (hover to see other rain measurements)
** Current wind speed in m/s (hover to see current wind gust speed)